Flag for U.S.A. Weather past 2 weeks in McAllen, Texas, U.S.A.

Now
62 °F

Mostly cloudy.


Feels Like: 62 °F
Forecast: 57 / 79 °F
Wind: No wind

Location: Miller International Airport

Current Time: Dec 21, 2014 at 8:49:57 PM

Latest Report: Dec 21, 2014 at 7:53 PM


Visibility: 8 mi

Pressure: 29.93 "Hg

Humidity: 86%

Dew point: 58 °F

Location of McAllenLocation

Historic Weather in McAllen — Graph

°F

McAllen temperature yesterday

Maximum temperature yesterday: 61 °F (at 12:53 AM)
Minimum temperature yesterday: 56 °F (at 8:53 AM)
Average temperature yesterday: 58 °F

Past Weeks' High & Low Weather Summary

 TemperatureHumidityPressure
High81 °F (Dec 15, 2:53 PM)100% (Dec 18, 6:53 PM)30.36 "Hg (Dec 18, 6:53 PM)
Low54 °F (Dec 21, 4:53 AM)56% (Dec 14, 1:53 PM)29.84 "Hg (Dec 14, 2:53 PM)
Average66 °F84%30.11 "Hg
* Reported Dec 6 7:53 PM — Dec 21 7:53 PM, McAllen, Weather by CustomWeather, © 2014

Note: Actual official high and low records may vary slightly from our data, if they occured in-between our weather recording intervals... More about our weather records

Advertising

McAllen weather history for previous 24 hours

 ConditionsComfort  
Time TempWeatherWind HumidityBarometerVisibility
7:53 PM
Dec 21
62 °FMostly cloudy.No wind86%29.93 "Hg8 mi
6:53 PM62 °FOvercast.5 mph83%29.93 "Hg9 mi
5:53 PM62 °FOvercast.5 mph80%29.93 "Hg9 mi
4:53 PM62 °FOvercast.3 mph83%29.94 "Hg8 mi
3:53 PM61 °FOvercast.5 mph83%29.95 "Hg7 mi
2:53 PM61 °FLow clouds.7 mph87%29.96 "Hg7 mi
1:53 PM61 °FFog.6 mph87%29.98 "Hg6 mi
12:53 PM60 °FFog.6 mph86%30.02 "Hg6 mi
11:53 AM58 °FFog.7 mph93%30.06 "Hg5 mi
10:53 AM57 °FFog.8 mph93%30.10 "Hg4 mi
9:53 AM56 °FFog.9 mph93%30.11 "Hg5 mi
8:53 AM55 °FFog.7 mph96%30.09 "Hg5 mi
7:53 AM54 °FFog.6 mph100%30.09 "Hg3 mi
6:53 AM54 °FLight rain. Fog.8 mph97%30.10 "Hg3 mi
5:53 AM54 °FFog.7 mph97%30.09 "Hg4 mi
4:53 AM54 °FFog.6 mph97%30.08 "Hg3 mi
3:53 AM55 °FFog.7 mph93%30.09 "Hg4 mi
2:53 AM55 °FFog.9 mph90%30.11 "Hg6 mi
1:53 AM56 °FOvercast.8 mph84%30.12 "Hg10 mi
12:53 AM56 °FOvercast.8 mph84%30.14 "Hg10 mi
11:53 PM
Dec 20
56 °FOvercast.8 mph84%30.15 "Hg10 mi
10:53 PM56 °FOvercast.7 mph84%30.15 "Hg10 mi
9:53 PM56 °FMostly cloudy.6 mph84%30.15 "Hg9 mi
9:02 PM56 °FMostly cloudy.8 mph84%30.15 "Hg9 mi
Weather by CustomWeather, © 2014

See weather overviewHow to use our weather pages